FW2951 Weather Reports


time (UTC)temp
F
wind
direction
speed
knots
gust
knots
rain 1hr
in
rain 24hr
in
rain mn
in
humidity
%
barometer
mb
20260510204047 73 0 0.0 0.0 0.00 0.00 0.00 65 1014.9
20260510203544 73 0 0.0 0.0 0.00 0.00 0.00 67 1015.0
20260510203044 72 0 0.0 0.9 0.00 0.00 0.00 71 1015.0
20260510202544 73 0 0.0 0.9 0.00 0.00 0.00 67 1015.0
20260510202040 73 0 0.0 0.0 0.00 0.00 0.00 66 1014.7
20260510201601 73 0 0.0 0.0 0.00 0.00 0.00 67 1015.0
20260510201044 75 0 0.0 0.0 0.00 0.00 0.00 63 1015.0
20260510200541 75 0 0.0 0.0 0.00 0.00 0.00 67 1015.2
20260510200118 75 0 0.0 0.0 0.00 0.00 0.00 65 1015.2
20260510195546 74 0 0.0 0.0 0.00 0.00 0.00 68 1015.3
20260510195044 73 0 0.0 0.0 0.00 0.00 0.00 71 1015.4
20260510194554 72 0 0.0 0.0 0.00 0.00 0.00 80 1015.4
20260510194044 71 0 0.0 0.0 0.00 0.00 0.00 77 1015.4
20260510193545 71 0 0.0 0.0 0.00 0.00 0.00 73 1015.5
20260510193100 70 0 0.0 0.0 0.00 0.00 0.00 73 1015.5
20260510192542 69 0 0.0 0.0 0.00 0.00 0.00 83 1015.5
20260510192044 69 0 0.0 0.0 0.00 0.00 0.00 77 1015.7
20260510191605 69 0 0.0 0.0 0.00 0.00 0.00 76 1015.7
20260510191045 70 0 0.0 0.0 0.00 0.00 0.00 75 1015.7
20260510190544 71 0 0.0 0.0 0.00 0.00 0.00 69 1015.8
20260510190100 71 0 0.0 0.0 0.00 0.00 0.00 70 1015.7
20260510185541 72 0 0.0 0.0 0.00 0.00 0.00 69 1015.6
20260510185046 72 0 0.0 0.9 0.00 0.00 0.00 66 1015.5
20260510184556 73 0 0.0 0.9 0.00 0.00 0.00 66 1015.5
20260510184046 73 0 0.0 1.7 0.00 0.00 0.00 67 1015.3
20260510183546 73 0 0.0 1.7 0.00 0.00 0.00 63 1015.4
20260510183049 74 0 0.0 1.7 0.00 0.00 0.00 61 1015.4
20260510182547 76 0 0.0 0.0 0.00 0.00 0.00 62 1015.4
20260510182044 76 0 0.0 0.9 0.00 0.00 0.00 63 1015.4
20260510181558 75 0 0.0 4.3 0.00 0.00 0.00 64 1015.3
20260510181044 76 0 0.0 4.3 0.00 0.00 0.00 62 1015.3
20260510180544 76 0 0.0 4.3 0.00 0.00 0.00 63 1015.3
20260510180048 76 0 0.0 2.6 0.00 0.00 0.00 61 1015.4
20260510175541 76 0 0.0 1.7 0.00 0.00 0.00 63 1015.3
20260510175044 76 0 0.0 1.7 0.00 0.00 0.00 63 1015.2
20260510174552 77 0 0.0 1.7 0.00 0.00 0.00 61 1015.1
20260510174044 76 0 0.0 0.9 0.00 0.00 0.00 61 1015.2
20260510173540 76 0 0.0 0.9 0.00 0.00 0.00 63 1015.3
20260510173050 76 0 0.0 0.0 0.00 0.00 0.00 62 1015.2
20260510172545 74 0 0.0 0.0 0.00 0.00 0.00 68 1015.3
20260510172045 75 0 0.0 0.0 0.00 0.00 0.00 61 1015.3
20260510171552 74 0 0.0 0.0 0.00 0.00 0.00 64 1015.3
20260510171043 73 0 0.0 0.0 0.00 0.00 0.00 65 1015.2
20260510170544 71 0 0.0 0.0 0.00 0.00 0.00 69 1015.4
20260510170057 69 0 0.0 0.0 0.00 0.00 0.00 70 1015.5
20260510165544 68 0 0.0 0.0 0.00 0.00 0.00 73 1015.6
20260510165048 69 0 0.0 0.0 0.00 0.00 0.00 75 1015.6
20260510164556 70 0 0.0 0.0 0.00 0.00 0.00 69 1015.6
20260510164041 71 0 0.0 0.0 0.00 0.00 0.00 67 1015.5
20260510163542 72 0 0.0 0.0 0.00 0.00 0.00 65 1015.5
20260510163053 73 0 0.0 0.0 0.00 0.00 0.00 62 1015.3
20260510162540 74 0 0.0 0.0 0.00 0.00 0.00 59 1015.3
20260510162043 73 0 0.0 0.0 0.00 0.00 0.00 66 1015.4
20260510161551 71 0 0.0 0.0 0.00 0.00 0.00 64 1015.4
20260510161041 72 0 0.0 0.0 0.00 0.00 0.00 62 1015.4
20260510160544 73 0 0.0 0.0 0.00 0.00 0.00 61 1015.4
20260510155544 71 0 0.0 0.0 0.00 0.00 0.00 66 1015.5
20260510155045 72 0 0.0 0.0 0.00 0.00 0.00 63 1015.4
20260510154556 73 0 0.0 0.0 0.00 0.00 0.00 66 1015.4
20260510154044 73 0 0.0 0.0 0.00 0.00 0.00 65 1015.4
20260510153544 72 0 0.0 0.0 0.00 0.00 0.00 65 1015.4
20260510153054 71 0 0.0 0.0 0.00 0.00 0.00 63 1015.5
20260510152547 72 0 0.0 0.9 0.00 0.00 0.00 62 1015.4
20260510152042 73 0 0.0 0.9 0.00 0.00 0.00 61 1015.3
20260510151551 72 0 0.0 0.9 0.00 0.00 0.00 61 1015.2
20260510151041 72 0 0.0 0.9 0.00 0.00 0.00 61 1015.2
20260510150543 71 0 0.0 2.6 0.00 0.00 0.00 62 1015.1
20260510150055 71 0 0.0 5.2 0.00 0.00 0.00 61 1014.9
20260510145549 71 0 0.0 5.2 0.00 0.00 0.00 62 1015.1
20260510145048 71 0 0.0 4.3 0.00 0.00 0.00 62 1015.2
20260510144555 70 0 0.0 4.3 0.00 0.00 0.00 62 1015.3
20260510144045 71 0 0.0 4.3 0.00 0.00 0.00 65 1015.4
20260510143548 70 0 0.0 4.3 0.00 0.00 0.00 63 1015.4
20260510143053 70 0 0.0 9.6 0.00 0.00 0.00 65 1015.2
20260510142544 70 0 0.0 9.6 0.00 0.00 0.00 64 1015.1
20260510142044 69 0 0.0 9.6 0.00 0.00 0.00 64 1015.2
20260510141558 69 0 0.0 6.1 0.00 0.00 0.00 66 1015.1
20260510141044 69 239 0.0 5.2 0.00 0.00 0.00 65 1015.1
20260510140542 69 0 0.0 0.9 0.00 0.00 0.00 64 1015.1
20260510140055 69 0 0.0 0.0 0.00 0.00 0.00 70 1015.2
20260510135544 68 0 0.0 0.0 0.00 0.00 0.00 68 1015.3
20260510135043 67 0 0.0 0.0 0.00 0.00 0.00 68 1015.4
20260510134605 66 0 0.0 0.0 0.00 0.00 0.00 71 1015.5
20260510134046 67 0 0.0 0.0 0.00 0.00 0.00 67 1015.4
20260510133548 67 0 0.0 0.0 0.00 0.00 0.00 70 1015.4
20260510133058 67 0 0.0 0.0 0.00 0.00 0.00 66 1015.4
20260510132545 67 0 0.0 0.0 0.00 0.00 0.00 69 1015.2
20260510132048 66 0 0.0 0.0 0.00 0.00 0.00 69 1015.2
20260510131556 66 0 0.0 0.0 0.00 0.00 0.00 71 1015.2
20260510131044 65 0 0.0 0.0 0.00 0.00 0.00 70 1015.2
20260510130544 65 0 0.0 0.0 0.00 0.00 0.00 69 1015.1
20260510130056 65 0 0.0 0.0 0.00 0.00 0.00 71 1015.1
20260510125543 65 0 0.0 0.0 0.00 0.00 0.00 71 1015.0
20260510125041 64 0 0.0 0.0 0.00 0.00 0.00 73 1015.0
20260510124559 64 0 0.0 0.0 0.00 0.00 0.00 71 1015.1
20260510124045 64 0 0.0 0.9 0.00 0.00 0.00 73 1015.1
20260510123543 63 0 0.0 3.5 0.00 0.00 0.00 75 1015.0
20260510123102 64 0 0.0 6.1 0.00 0.00 0.00 75 1015.0
20260510122545 64 213 0.0 6.1 0.00 0.00 0.00 73 1014.9
20260510122044 63 0 0.0 6.1 0.00 0.00 0.00 73 1014.7
20260510121553 63 0 0.0 0.0 0.00 0.00 0.00 75 1014.8
20260510121044 62 0 0.0 0.0 0.00 0.00 0.00 77 1014.8
20260510120542 62 0 0.0 0.0 0.00 0.00 0.00 80 1014.8
20260510120052 61 0 0.0 0.9 0.00 0.00 0.00 81 1014.9
20260510115544 61 0 0.0 0.9 0.00 0.00 0.00 83 1014.7
20260510115042 60 0 0.0 0.9 0.00 0.00 0.00 86 1014.7
20260510114553 59 0 0.0 0.0 0.00 0.00 0.00 87 1014.5
20260510114044 58 0 0.0 0.0 0.00 0.00 0.00 89 1014.6
20260510113541 57 0 0.0 0.0 0.00 0.00 0.00 90 1014.5
20260510113056 57 0 0.0 0.0 0.00 0.00 0.00 91 1014.4
20260510112542 56 0 0.0 0.0 0.00 0.00 0.00 93 1014.4
20260510112042 55 0 0.0 0.0 0.00 0.00 0.00 93 1014.3
20260510111554 54 0 0.0 0.0 0.00 0.00 0.00 92 1014.2
20260510111044 54 0 0.0 0.0 0.00 0.00 0.00 92 1014.1
20260510110544 54 0 0.0 0.0 0.00 0.00 0.00 92 1014.0
20260510110052 53 0 0.0 0.0 0.00 0.00 0.00 91 1013.9
20260510105544 53 0 0.0 0.0 0.00 0.00 0.00 91 1013.9
20260510105045 53 0 0.0 0.0 0.00 0.00 0.00 91 1013.8
20260510104548 53 0 0.0 0.0 0.00 0.00 0.00 91 1013.7
20260510104044 53 0 0.0 0.0 0.00 0.00 0.00 91 1013.7
20260510103547 53 0 0.0 0.0 0.00 0.00 0.00 90 1013.6
20260510103058 53 0 0.0 0.0 0.00 0.00 0.00 90 1013.5
20260510102545 53 0 0.0 0.0 0.00 0.00 0.00 90 1013.4
20260510102042 54 0 0.0 0.0 0.00 0.00 0.00 90 1013.3
20260510101605 54 0 0.0 0.0 0.00 0.00 0.00 90 1013.4
20260510101046 54 0 0.0 0.0 0.00 0.00 0.00 90 1013.5
20260510100545 54 0 0.0 0.0 0.00 0.00 0.00 90 1013.6
20260510100050 54 0 0.0 2.6 0.00 0.00 0.00 90 1013.5
20260510095545 54 0 0.0 2.6 0.00 0.00 0.00 90 1013.4
20260510095044 54 0 0.0 2.6 0.00 0.00 0.00 90 1013.2
20260510094553 54 0 0.0 0.0 0.00 0.00 0.00 89 1013.1
20260510094044 54 0 0.0 0.0 0.00 0.00 0.00 89 1012.9
20260510093544 54 0 0.0 0.0 0.00 0.00 0.00 89 1012.9
20260510093051 54 0 0.0 0.0 0.00 0.00 0.00 89 1012.9
20260510092542 54 0 0.0 0.0 0.00 0.00 0.00 89 1012.9
20260510092042 54 0 0.0 0.0 0.00 0.00 0.00 88 1012.8
20260510091553 55 0 0.0 0.0 0.00 0.00 0.00 88 1012.8
20260510091042 55 0 0.0 0.9 0.00 0.00 0.00 88 1012.8
20260510090600 55 0 0.0 0.9 0.00 0.00 0.00 88 1012.7
20260510090052 55 0 0.0 0.0 0.00 0.00 0.00 88 1012.6
20260510085542 55 0 0.0 0.0 0.00 0.00 0.00 88 1012.5
20260510085042 55 0 0.0 0.0 0.00 0.00 0.00 88 1012.5
20260510084552 55 0 0.0 0.0 0.00 0.00 0.00 88 1012.4
20260510084045 55 0 0.0 0.0 0.00 0.00 0.00 88 1012.4
20260510083544 55 0 0.0 0.0 0.00 0.00 0.00 88 1012.2
20260510083055 55 0 0.0 0.0 0.00 0.00 0.00 88 1012.2
20260510082542 55 0 0.0 0.0 0.00 0.00 0.00 88 1012.2
20260510082042 55 0 0.0 0.0 0.00 0.00 0.00 88 1012.2
20260510081557 55 0 0.0 0.0 0.00 0.00 0.00 88 1012.2
20260510081042 55 0 0.0 0.0 0.00 0.00 0.00 88 1012.1
20260510080541 55 0 0.0 0.0 0.00 0.00 0.00 88 1012.1
20260510080050 55 0 0.0 0.0 0.00 0.00 0.00 88 1012.1
20260510075545 55 0 0.0 1.7 0.00 0.00 0.00 88 1012.1
20260510075042 55 0 0.0 1.7 0.00 0.00 0.00 88 1011.9
20260510074556 55 0 0.0 0.0 0.00 0.00 0.00 88 1012.0
20260510074045 55 0 0.0 0.0 0.00 0.00 0.00 88 1011.9
20260510073544 55 0 0.0 0.0 0.00 0.00 0.00 88 1011.9
20260510073103 55 0 0.0 0.0 0.00 0.00 0.00 88 1011.9
20260510072541 55 0 0.0 0.0 0.00 0.00 0.00 88 1011.9
20260510072045 55 0 0.0 0.0 0.00 0.00 0.00 88 1011.9
20260510071559 55 0 0.0 0.0 0.00 0.00 0.00 88 1011.8
20260510071044 56 0 0.0 0.0 0.00 0.00 0.00 88 1011.9
20260510070544 56 0 0.0 0.0 0.00 0.00 0.00 88 1011.9
20260510070052 56 0 0.0 0.0 0.00 0.00 0.00 87 1011.9
20260510065542 56 0 0.0 0.0 0.00 0.00 0.00 87 1011.9
20260510065046 56 0 0.0 0.0 0.00 0.00 0.00 88 1011.9
20260510064548 56 0 0.0 0.0 0.00 0.00 0.00 87 1012.0
20260510064042 56 0 0.0 0.0 0.00 0.00 0.00 87 1011.9
20260510063542 56 0 0.0 0.0 0.00 0.00 0.00 87 1012.0
20260510063049 56 0 0.0 0.0 0.00 0.00 0.00 87 1012.0
20260510062545 56 0 0.0 0.0 0.00 0.00 0.00 87 1012.0
20260510062044 56 0 0.0 0.0 0.00 0.00 0.00 87 1011.9
20260510061602 56 0 0.0 0.0 0.00 0.00 0.00 87 1012.0
20260510061045 56 0 0.0 0.0 0.00 0.00 0.00 87 1012.0
20260510060547 56 0 0.0 0.0 0.00 0.00 0.00 86 1012.0
20260510060051 56 0 0.0 0.0 0.00 0.00 0.00 86 1012.1
20260510055544 56 0 0.0 0.0 0.00 0.00 0.00 86 1012.1
20260510055043 56 0 0.0 0.0 0.00 0.00 0.00 86 1012.0
20260510054600 56 0 0.0 0.0 0.00 0.00 0.00 86 1012.1
20260510054043 57 0 0.0 0.0 0.00 0.00 0.00 86 1012.0
20260510053542 57 0 0.0 0.0 0.00 0.00 0.00 86 1012.0
20260510053052 57 0 0.0 0.0 0.00 0.00 0.00 85 1012.0
20260510052544 57 0 0.0 0.0 0.00 0.00 0.00 85 1012.1
20260510052043 57 0 0.0 0.0 0.00 0.00 0.00 85 1012.1
20260510051554 57 0 0.0 0.0 0.00 0.00 0.00 84 1012.2
20260510051042 57 0 0.0 0.0 0.00 0.00 0.00 84 1012.3
20260510050546 57 0 0.0 0.0 0.00 0.00 0.00 84 1012.3
20260510050055 57 0 0.0 0.0 0.00 0.00 0.00 84 1012.2
20260510045545 58 0 0.0 0.0 0.00 0.00 0.00 84 1012.2
20260510045044 58 0 0.0 0.0 0.00 0.00 0.00 84 1012.3
20260510044553 58 0 0.0 0.0 0.00 0.00 0.00 84 1012.3
20260510044044 58 0 0.0 0.0 0.00 0.00 0.00 84 1012.4
20260510043544 58 0 0.0 0.0 0.00 0.00 0.00 83 1012.5
20260510043056 58 0 0.0 0.0 0.00 0.00 0.00 83 1012.5
20260510042546 58 0 0.0 0.0 0.00 0.00 0.00 83 1012.5
20260510042042 59 0 0.0 0.0 0.00 0.00 0.00 83 1012.5
20260510041605 59 0 0.0 0.0 0.00 0.00 0.00 82 1012.5
20260510041043 59 0 0.0 0.0 0.00 0.00 0.00 81 1012.4
20260510040545 59 0 0.0 0.0 0.00 0.00 0.00 81 1012.4
20260510040053 59 0 0.0 0.0 0.00 0.00 0.00 81 1012.5
20260510035541 59 0 0.0 0.0 0.00 0.00 0.00 80 1012.4
20260510035045 60 0 0.0 0.0 0.00 0.00 0.00 79 1012.5
20260510034555 60 0 0.0 0.0 0.00 0.00 0.00 79 1012.5
20260510034043 60 0 0.0 0.0 0.00 0.00 0.00 79 1012.4
20260510033544 60 0 0.0 0.0 0.00 0.00 0.00 79 1012.5
20260510033055 60 0 0.0 0.0 0.00 0.00 0.00 79 1012.3
20260510032544 61 0 0.0 0.0 0.00 0.00 0.00 78 1012.3
20260510032046 61 0 0.0 0.0 0.00 0.00 0.00 78 1012.3
20260510031553 61 0 0.0 0.0 0.00 0.00 0.00 78 1012.3
20260510031048 61 0 0.0 0.0 0.00 0.00 0.00 78 1012.3
20260510030544 61 0 0.0 0.0 0.00 0.00 0.00 77 1012.3
20260510030050 61 0 0.0 0.0 0.00 0.00 0.00 77 1012.2
20260510025544 61 0 0.0 0.9 0.00 0.00 0.00 77 1012.2
20260510025041 61 0 0.0 1.7 0.00 0.00 0.00 77 1012.1
20260510024606 61 0 0.0 1.7 0.00 0.00 0.00 77 1012.2
20260510024045 62 0 0.0 0.9 0.00 0.00 0.00 76 1012.1
20260510023544 62 0 0.0 0.0 0.00 0.00 0.00 76 1012.0
20260510023055 62 0 0.0 0.0 0.00 0.00 0.00 76 1012.1
20260510022542 62 0 0.0 0.0 0.00 0.00 0.00 75 1011.9
20260510022045 62 0 0.0 0.0 0.00 0.00 0.00 75 1011.8
20260510021547 62 0 0.0 0.0 0.00 0.00 0.00 75 1011.7
20260510021041 62 0 0.0 0.0 0.00 0.00 0.00 75 1011.6
20260510020544 62 0 0.0 0.0 0.00 0.00 0.00 74 1011.6
20260510020053 63 0 0.0 0.0 0.00 0.00 0.00 74 1011.5
20260510015543 63 0 0.0 0.0 0.00 0.00 0.00 74 1011.5
20260510015044 63 0 0.0 0.0 0.00 0.00 0.00 74 1011.5
20260510014610 63 0 0.0 2.6 0.00 0.00 0.00 73 1011.4
20260510014044 63 0 0.0 2.6 0.00 0.00 0.00 73 1011.3
20260510013545 63 0 0.0 2.6 0.00 0.00 0.00 73 1011.3
20260510013101 63 0 0.0 0.0 0.00 0.00 0.00 72 1011.2
20260510012548 63 0 0.0 0.0 0.00 0.00 0.00 72 1011.1
20260510012045 64 0 0.0 0.0 0.00 0.00 0.00 72 1011.0
20260510011550 64 0 0.0 0.0 0.00 0.00 0.00 72 1010.9
20260510011048 64 0 0.0 0.0 0.00 0.00 0.00 71 1011.0
20260510010544 64 0 0.0 0.0 0.00 0.00 0.00 71 1010.8
20260510010053 64 0 0.0 0.0 0.00 0.00 0.00 70 1010.8
20260510005545 65 0 0.0 0.0 0.00 0.00 0.00 70 1010.7
20260510005047 65 0 0.0 0.9 0.00 0.00 0.00 69 1010.7
20260510004555 65 0 0.0 0.9 0.00 0.00 0.00 69 1010.7
20260510004044 65 0 0.0 0.9 0.00 0.00 0.00 69 1010.6
20260510003541 65 0 0.0 0.9 0.00 0.00 0.00 68 1010.6
20260510003052 66 0 0.0 0.0 0.00 0.00 0.00 68 1010.5
20260510002543 66 0 0.0 0.0 0.00 0.00 0.00 68 1010.4
20260510002045 66 0 0.0 0.0 0.00 0.00 0.00 67 1010.4
20260510001549 66 0 0.0 0.0 0.00 0.00 0.00 67 1010.3
20260510001045 67 0 0.0 0.0 0.00 0.00 0.00 67 1010.2
20260510000545 67 0 0.0 0.0 0.00 0.00 0.00 67 1010.2
20260510000052 67 0 0.0 3.5 0.00 0.00 0.00 66 1010.2
20260509235544 67 0 0.0 3.5 0.00 0.00 0.00 66 1010.1
20260509235047 67 0 0.0 0.0 0.00 0.00 0.00 65 1010.1
20260509234551 67 0 0.0 7.0 0.00 0.00 0.00 65 1010.1
20260509234041 68 0 0.0 7.0 0.00 0.00 0.00 65 1010.1
20260509233545 68 0 0.0 1.7 0.00 0.00 0.00 64 1010.0
20260509233053 68 0 0.0 7.0 0.00 0.00 0.00 64 1010.1
20260509232544 68 0 0.0 7.0 0.00 0.00 0.00 64 1010.0
20260509232044 68 0 0.0 2.6 0.00 0.00 0.00 64 1010.0
20260509231600 68 0 0.0 5.2 0.00 0.00 0.00 63 1010.3
20260509231045 68 0 0.0 5.2 0.00 0.00 0.00 63 1010.2
20260509230547 68 0 0.0 3.5 0.00 0.00 0.00 62 1010.1
20260509230052 69 0 0.0 3.5 0.00 0.00 0.00 62 1010.1
20260509225545 69 0 0.0 2.6 0.00 0.00 0.00 62 1010.0
20260509225044 69 0 0.0 0.0 0.00 0.00 0.00 62 1010.0
20260509224549 69 0 0.0 11.3 0.00 0.00 0.00 62 1010.0
20260509224045 69 0 0.0 11.3 0.00 0.00 0.00 61 1010.0
20260509223546 69 207 0.9 11.3 0.00 0.00 0.00 61 1010.0
20260509223054 69 0 0.0 0.0 0.00 0.00 0.00 63 1010.0
20260509222547 69 0 0.0 0.0 0.00 0.00 0.00 62 1010.0
20260509222045 69 0 0.0 0.0 0.00 0.00 0.00 61 1009.9
20260509221548 69 0 0.0 1.7 0.00 0.00 0.00 62 1009.9
20260509221043 69 0 0.0 1.7 0.00 0.00 0.00 61 1009.9
20260509220543 69 0 0.0 1.7 0.00 0.00 0.00 61 1009.9
20260509220048 69 0 0.0 0.0 0.00 0.00 0.00 63 1009.9
20260509215547 69 0 0.0 0.0 0.00 0.00 0.00 62 1009.9
20260509215044 69 0 0.0 0.0 0.00 0.00 0.00 64 1009.9
20260509214549 69 0 0.0 0.9 0.00 0.00 0.00 63 1010.1
20260509214048 69 0 0.0 4.3 0.00 0.00 0.00 64 1010.1
20260509213544 69 0 0.0 4.3 0.00 0.00 0.00 65 1010.1
20260509213055 69 0 0.0 6.1 0.00 0.00 0.00 63 1010.1
20260509212545 69 0 0.0 6.1 0.00 0.00 0.00 62 1010.0
20260509212045 69 0 0.0 1.7 0.00 0.00 0.00 63 1010.2
20260509211558 69 0 0.0 0.0 0.00 0.00 0.00 68 1010.1
20260509211042 69 0 0.0 0.0 0.00 0.00 0.00 65 1010.1
20260509210545 70 0 0.0 6.1 0.00 0.00 0.00 64 1010.2
20260509210054 69 0 0.0 6.1 0.00 0.00 0.00 63 1010.1
20260509205544 70 0 0.0 7.8 0.00 0.00 0.00 62 1010.2
20260509205044 70 0 0.0 7.8 0.00 0.00 0.00 63 1010.2
20260509204549 71 0 0.0 2.6 0.00 0.00 0.00 65 1010.1